Location: Krakow
(50.0212°N, 19.9423°E)
Time: 23:47:08
(UTC+02:00)

NOAA 18 - Pass Details

Date: 20 August 2024
Orbit: 837 x 859 km, 98.9° (Epoch: 19 September)

Event Time Altitude Azimuth Distance (km) Brightness Sun altitude
Exits shadow 00:26:22 13° 259° (W) 2,270 7.3 -27.5°
Maximum altitude 00:27:39 14° 274° (W) 2,211 7.4 -27.5°
Drops below altitude 10° 00:30:32 10° 306° (NW) 2,504 8.1 -27.5°
Sets 00:34:12 0° 330° (NNW) 3,446 9.3 -27.6°
